[[{"header":{"parameterUnit":"m.s-1","parameterCategory":1,"la1":30.2991,"la2":30.254,"lo1":-89.0895,"lo2":-89.0444,"dy":0.0017,"dx":0.0017,"nx":28,"ny":28,"refTime":"2024-03-12T09:00:00:Z","depth":0,"parameterNumber":2,"parameterNumberName":"U-component_of_WINDS"},"data":[0,0,0,0,0,0,0,0,0,0,0,0,0,0,0,0,0,0,0,0,0,0,0,0,0,0,0,0,0,0,0,0,0,0,0,0,0,0,0,0,0,0,0,0,0,0,0,0,0,0,0,0,0,0,0,0,0,0,-4.3923,-4.3924,0,-4.4008,-4.4009,-4.401,-4.3971,-4.3969,-4.3967,-4.3965,-4.4049,-4.4053,-4.4057,0,0,0,0,0,0,0,0,0,0,0,0,0,-4.3726,-4.373,-4.3923,-4.3924,-4.3925,-4.4008,-4.4009,-4.401,-4.3972,-4.3969,-4.3966,-4.3964,-4.4048,-4.4053,-4.4058,0,0,0,0,0,0,0,0,0,0,0,0,0,-4.3811,-4.3731,-4.3923,-4.3916,-4.3916,-4.4007,-4.4009,-4.401,-4.3972,-4.3969,-4.3966,-4.3963,-4.4046,-4.4052,-4.4059,-4.4161,0,0,-4.4078,-4.4081,0,0,0,0,0,0,0,0,-4.3807,-4.3819,-4.3916,-4.3916,-4.3917,-4.3976,-4.397,-4.4061,-4.3973,-4.3951,-4.3965,-4.3961,-4.4027,-4.4035,-4.4058,-4.4165,-4.4168,-4.4078,-4.4082,-4.4085,-4.4087,0,0,0,0,0,0,0,-4.3801,-4.3815,-4.3956,-4.3917,-4.3918,-4.3908,-4.3917,-4.3987,-4.4006,-4.3952,-4.395,-4.3961,-4.4027,-4.4052,-4.4059,-4.417,-4.4078,-4.4084,-4.4088,-4.409,-4.4365,-4.4368,0,0,0,0,0,0,-4.3795,-4.381,-4.3954,-4.3959,-4.3853,-4.3914,-4.3924,-4.396,-4.4005,-4.4009,-4.3963,-4.3959,-4.4042,-4.4052,-4.4062,-4.4184,-4.4085,-4.4091,-4.4094,-4.4361,-4.4366,-4.437,0,0,0,0,0,0,-4.3791,-4.3808,-4.395,-4.3884,-4.3901,-4.3921,-4.3962,-4.3963,-4.3988,-4.4013,-4.4016,-4.3985,-4.404,-4.4053,-4.4137,-4.4186,-4.4094,-4.4099,-4.4357,-4.4363,-4.4368,-4.4428,0,0,0,0,0,0,-4.3786,-4.3807,-4.3846,-4.3885,-4.3905,-4.4024,-4.3965,-4.3967,-4.3999,-4.3994,-4.4034,-4.4038,-4.4039,-4.4128,-4.4143,-4.4193,-4.4104,-4.4353,-4.436,-4.4366,-4.4421,-4.4435,-4.4446,0,0,0,0,0,-4.3779,-4.3859,-4.3848,-4.3866,-4.3954,-4.4027,-4.4038,-4.4038,-4.4004,-4.4042,-4.4059,-4.4037,-4.4179,-4.4136,-4.4153,-4.4206,-4.435,-4.4358,-4.4365,-4.4416,-4.4432,-4.4446,0,0,0,0,0,0,-4.3823,-4.3864,-4.3852,-4.3948,-4.3984,-4.402,-4.4069,-4.4055,-4.4101,-4.4094,-4.4092,-4.4101,-4.4188,-4.4206,-4.4157,-4.4308,-4.4259,-4.4271,-4.4292,-4.4307,-4.4319,-4.4311,-4.411,0,0,0,0,0,-4.3845,-4.3901,-4.3933,-4.4014,-4.4033,-4.4049,-4.408,-4.4078,-4.4115,-4.4129,-4.4152,-4.4188,-4.4241,-4.4276,-4.4326,-4.4426,-4.4433,-4.4471,-4.4483,-4.4493,-4.4501,-4.4555,-4.4571,-4.4395,-4.4395,-4.4395,0,0,-4.3888,-4.3918,-4.3953,-4.4024,-4.4052,-4.4109,-4.4061,-4.4124,-4.4166,-4.4139,-4.4218,-4.4237,-4.4277,-4.4369,-4.4411,-4.4387,-4.4553,-4.4503,-4.451,-4.4514,-4.4565,-4.4581,-4.4596,-4.4401,-4.44,-4.4399,0,0,-4.3997,-4.4026,-4.4096,-4.4126,-4.4169,-4.4179,-4.4197,-4.4236,-4.4247,-4.4328,-4.4308,-4.4359,-4.445,-4.448,-4.4507,-4.4631,-4.4611,-4.4647,-4.4709,-4.4761,-4.4775,-4.4787,-4.4829,-4.4844,-4.4657,-4.4657,-4.4657,0,-4.4045,-4.4131,-4.4133,-4.4198,-4.4229,-4.421,-4.4281,-4.431,-4.4367,-4.4389,-4.4363,-4.4478,-4.4504,-4.4602,-4.4632,-4.4656,-4.4674,-4.464,-4.4773,-4.4785,-4.4797,-4.4836,-4.4852,-4.4661,-4.4661,-4.466,-4.466,0,-4.4187,-4.4248,-4.4299,-4.4356,-4.4395,-4.4462,-4.4474,-4.4513,-4.4509,-4.4522,-4.4604,-4.4636,-4.4692,-4.4716,-4.4712,-4.4814,-4.4798,-4.4773,-4.4723,-4.4817,-4.4854,-4.487,-4.4667,-4.4665,-4.4664,-4.4663,0,0,-4.4321,-4.4382,-4.44,-4.4426,-4.4475,-4.4521,-4.4589,-4.4645,-4.4677,-4.4719,-4.4774,-4.4854,-4.4831,-4.4862,-4.4862,-4.4908,-4.5002,-4.4877,-4.4878,-4.4897,-4.5115,-4.5131,-4.5148,-4.4992,-4.4995,-4.4997,-4.5111,0,-4.443,-4.4548,-4.4554,-4.4661,-4.4716,-4.47,-4.4759,-4.4795,-4.481,-4.4859,-4.4876,-4.4931,-4.4899,-4.4917,-4.4963,-4.4981,-4.5045,-4.4973,-4.5041,-4.5043,-4.5027,-4.5168,-4.5185,-4.529,-4.5125,-4.5128,-4.513,0,-4.4572,-4.462,-4.4732,-4.4774,-4.4798,-4.485,-4.4902,-4.4951,-4.4992,-4.4999,-4.5036,-4.503,-4.5098,-4.505,-4.5144,-4.5095,-4.5124,-4.5138,-4.5142,-4.5144,-4.5089,-4.5172,-4.5324,-4.5338,-4.5153,-4.5151,-4.515,0,-4.4655,-4.4748,-4.4827,-4.485,-4.4901,-4.4939,-4.4962,-4.5,-4.5034,-4.5081,-4.5102,-4.5156,-4.5185,-4.5227,-4.5235,-4.52,-4.5329,-4.5282,-4.5335,-4.5335,-4.5359,-4.5357,-4.5515,-4.5385,-4.5384,-4.5384,-4.5384,0,-4.4774,-4.4843,-4.4865,-4.4913,-4.499,-4.4997,-4.5073,-4.5094,-4.5129,-4.518,-4.5172,-4.522,-4.523,-4.5281,-4.5289,-4.5364,-4.5378,-4.5385,-4.5385,-4.5384,-4.5382,-4.5399,-4.539,-4.5388,-4.5387,-4.5386,-4.5386,0,-4.4877,-4.4895,-4.498,-4.5023,-4.5036,-4.509,-4.5127,-4.5173,-4.5189,-4.5255,-4.527,-4.5295,-4.5354,-4.5368,-4.5439,-4.5444,-4.5533,-4.5528,-4.5519,-4.5517,-4.5569,-4.5563,-4.574,-4.5763,-4.5621,-4.5623,-4.5624,0,-4.495,-4.5003,-4.5052,-4.5087,-4.5112,-4.5168,-4.5203,-4.5214,-4.525,-4.5303,-4.5343,-4.5402,-4.5449,-4.5545,-4.5569,-4.5623,-4.5617,-4.5676,-4.5625,-4.5622,-4.5614,-4.561,-4.5614,-4.5684,-4.5685,-4.5687,-4.5688,0,-4.5076,-4.5083,-4.5134,-4.519,-4.5232,-4.5276,-4.5318,-4.5347,-4.5363,-4.5405,-4.5467,-4.5504,-4.5578,-4.5636,-4.5691,-4.5714,-4.5703,-4.5705,-4.5719,-4.5716,-4.5707,-4.5709,-4.5541,-4.5699,-4.5698,-4.5697,-4.5697,-4.5696,-4.5164,-4.521,-4.5252,-4.531,-4.5344,-4.5384,-4.5429,-4.5452,-4.5504,-4.5565,-4.5569,-4.5635,-4.5677,-4.575,-4.5777,-4.5829,-4.5811,-4.5833,-4.5838,-4.5842,-4.5845,-4.5703,-4.584,-4.5839,-4.5839,-4.5839,-4.5839,0,-4.5287,-4.5314,-4.5368,-4.5428,-4.5473,-4.5463,-4.5509,-4.5548,-4.5607,-4.5647,-4.5695,-4.5766,-4.5823,-4.5853,-4.591,-4.5946,-4.5942,-4.596,-4.5955,-4.596,-4.586,-4.584,-4.5962,-4.5962,-4.5962,-4.5962,-4.5962,-4.5962,-4.5356,-4.5433,-4.5446,-4.5539,-4.5567,-4.5632,-4.566,-4.5696,-4.5729,-4.5809,-4.5857,-4.5877,-4.5913,-4.5973,-4.6025,-4.6032,-4.6052,-4.6072,-4.6076,-4.598,-4.5968,-4.5955,-4.5936,-4.6077,-4.6077,-4.6172,-4.6173,-4.6174]},{"header":{"parameterUnit":"m.s-1","parameterCategory":1,"la1":30.2991,"la2":30.254,"lo1":-89.0895,"lo2":-89.0444,"dy":0.0017,"dx":0.0017,"nx":28,"ny":28,"refTime":"2024-03-12T09:00:00:Z","depth":0,"parameterNumber":3,"parameterNumberName":"V-component_of_WINDS"},"data":[0,0,0,0,0,0,0,0,0,0,0,0,0,0,0,0,0,0,0,0,0,0,0,0,0,0,0,0,0,0,0,0,0,0,0,0,0,0,0,0,0,0,0,0,0,0,0,0,0,0,0,0,0,0,0,0,0,0,2.2964,2.2965,0,2.3038,2.3038,2.3039,2.3055,2.3055,2.3054,2.3054,2.3125,2.3128,2.313,0,0,0,0,0,0,0,0,0,0,0,0,0,2.2835,2.2837,2.2964,2.2965,2.2966,2.3037,2.3038,2.3039,2.3055,2.3055,2.3054,2.3053,2.3124,2.3127,2.313,0,0,0,0,0,0,0,0,0,0,0,0,0,2.2898,2.2838,2.2964,2.2982,2.2985,2.3037,2.3039,2.304,2.3055,2.3055,2.3054,2.3053,2.3124,2.3127,2.3131,2.3169,0,0,2.3142,2.3143,0,0,0,0,0,0,0,0,2.2894,2.2903,2.2979,2.2981,2.2984,2.3036,2.3019,2.3083,2.3056,2.3028,2.3054,2.3053,2.3096,2.3102,2.3117,2.3172,2.3175,2.3142,2.3144,2.3146,2.3147,0,0,0,0,0,0,0,2.289,2.2899,2.2993,2.298,2.2983,2.2986,2.2994,2.3031,2.3066,2.3031,2.3032,2.3041,2.3097,2.3114,2.3119,2.3176,2.3142,2.3145,2.3147,2.3149,2.3268,2.3269,0,0,0,0,0,0,2.2883,2.2896,2.2991,2.2995,2.2936,2.2989,2.2998,2.302,2.3065,2.3072,2.3041,2.3041,2.3108,2.3115,2.3122,2.3171,2.3146,2.3149,2.3151,2.3267,2.3268,2.3269,0,0,0,0,0,0,2.288,2.2891,2.2988,2.2946,2.2959,2.2992,2.3017,2.3022,2.3039,2.3073,2.3079,2.3052,2.3108,2.3117,2.3158,2.3173,2.3151,2.3154,2.3266,2.3267,2.3269,2.3268,0,0,0,0,0,0,2.2876,2.289,2.2905,2.2946,2.2961,2.3023,2.3018,2.3024,2.3045,2.3046,2.3085,2.3091,2.3108,2.3152,2.3161,2.3178,2.3157,2.3264,2.3266,2.3268,2.3267,2.3269,2.3271,0,0,0,0,0,2.2871,2.29,2.2906,2.2917,2.298,2.3024,2.3032,2.3052,2.3046,2.3062,2.3085,2.3089,2.317,2.3156,2.3166,2.3184,2.3263,2.3266,2.3268,2.3265,2.3269,2.3271,0,0,0,0,0,0,2.2858,2.2906,2.2912,2.2956,2.2986,2.3026,2.3046,2.3054,2.3085,2.3084,2.3107,2.3116,2.3156,2.3174,2.3158,2.3225,2.3217,2.3221,2.3211,2.3214,2.3217,2.3211,2.316,0,0,0,0,0,2.286,2.2893,2.2932,2.2967,2.2982,2.3011,2.3031,2.3044,2.3076,2.3088,2.3113,2.3143,2.3175,2.3196,2.3227,2.327,2.3279,2.3287,2.3289,2.3291,2.3295,2.332,2.3325,2.3277,2.3277,2.3277,0,0,2.2865,2.2895,2.2914,2.2965,2.299,2.3022,2.3022,2.3055,2.308,2.3093,2.3134,2.3154,2.3188,2.3231,2.325,2.3247,2.331,2.3294,2.3295,2.3298,2.3323,2.3327,2.3331,2.3278,2.3278,2.3278,0,0,2.289,2.2916,2.2949,2.2974,2.3013,2.3033,2.3041,2.3081,2.3095,2.3137,2.3148,2.3177,2.3231,2.3256,2.3276,2.3314,2.332,2.3323,2.3335,2.336,2.3363,2.3367,2.3381,2.3386,2.3327,2.3327,2.3327,0,2.2891,2.2941,2.2964,2.2998,2.3021,2.3036,2.3069,2.3093,2.3139,2.3154,2.315,2.3221,2.3245,2.3294,2.3304,2.3319,2.3329,2.3318,2.3361,2.3365,2.3369,2.3382,2.3388,2.3327,2.3327,2.3327,2.3327,0,2.294,2.2975,2.2996,2.3043,2.3068,2.3101,2.3129,2.3152,2.3163,2.3184,2.3227,2.3257,2.3296,2.3309,2.3319,2.336,2.3357,2.3357,2.3349,2.3373,2.3387,2.3392,2.3327,2.3327,2.3327,2.3327,0,0,2.2957,2.3018,2.3026,2.3048,2.3093,2.312,2.3154,2.3194,2.3213,2.3245,2.3275,2.3322,2.3323,2.3346,2.336,2.3381,2.3411,2.3379,2.338,2.3384,2.3459,2.3459,2.3464,2.3415,2.3416,2.3417,2.3456,0,2.2988,2.3052,2.3075,2.3127,2.316,2.3176,2.3207,2.3237,2.3258,2.3288,2.331,2.3344,2.3343,2.3357,2.3379,2.3402,2.3426,2.34,2.3443,2.3444,2.3434,2.3471,2.3471,2.3506,2.3461,2.3462,2.3463,0,2.3032,2.3068,2.3123,2.3167,2.3181,2.3208,2.3247,2.3277,2.3312,2.3325,2.3352,2.3365,2.3402,2.3393,2.3444,2.3426,2.3445,2.346,2.3462,2.3466,2.3455,2.3477,2.3517,2.3523,2.3471,2.3471,2.347,0,2.3041,2.3101,2.3143,2.3162,2.3212,2.3231,2.3253,2.3288,2.3311,2.3345,2.3361,2.3398,2.3418,2.3447,2.347,2.3461,2.352,2.3512,2.3532,2.3531,2.3543,2.3542,2.3587,2.3555,2.3555,2.3555,2.3555,0,2.3073,2.3107,2.3148,2.3174,2.3212,2.3239,2.3276,2.3299,2.333,2.336,2.3376,2.3404,2.3433,2.3465,2.3483,2.3523,2.3532,2.3544,2.3548,2.3543,2.3541,2.3555,2.3553,2.3556,2.3556,2.3555,2.3555,0,2.3088,2.3117,2.3164,2.321,2.3222,2.3248,2.3287,2.3312,2.3335,2.3373,2.3383,2.3418,2.3456,2.3482,2.3531,2.3543,2.3587,2.3591,2.3576,2.3578,2.3597,2.3595,2.3652,2.3662,2.3623,2.3623,2.3624,0,2.3107,2.3134,2.3183,2.3205,2.3228,2.3263,2.3288,2.3315,2.334,2.3384,2.3404,2.3444,2.3478,2.3538,2.3567,2.3605,2.361,2.3627,2.3615,2.3609,2.3611,2.3609,2.3612,2.3629,2.3629,2.3629,2.363,0,2.3138,2.3152,2.3187,2.3228,2.3258,2.3291,2.3324,2.3341,2.3374,2.3401,2.3442,2.3468,2.3519,2.3558,2.3599,2.3621,2.3631,2.3634,2.364,2.3635,2.3625,2.3632,2.3581,2.3632,2.3632,2.3631,2.3631,2.3631,2.3156,2.3181,2.3221,2.326,2.3289,2.332,2.3347,2.3374,2.3409,2.3453,2.3467,2.351,2.3546,2.3602,2.3625,2.3658,2.3657,2.3666,2.3669,2.3671,2.3671,2.362,2.3666,2.3666,2.3666,2.3666,2.3666,0,2.3188,2.3215,2.3251,2.3299,2.333,2.3339,2.3376,2.3402,2.3439,2.3473,2.3507,2.3554,2.3593,2.3626,2.3666,2.3687,2.3693,2.3697,2.3695,2.3701,2.367,2.366,2.3692,2.3692,2.3691,2.3691,2.3691,2.3691,2.3209,2.3253,2.3272,2.333,2.3357,2.34,2.3421,2.345,2.3477,2.353,2.3564,2.3585,2.3619,2.3663,2.3699,2.3708,2.3722,2.3725,2.3735,2.3705,2.3702,2.37,2.3691,2.3728,2.3728,2.3763,2.3763,2.3763]}]]